Regional Weather Roundup
Issued by NWS

Home | Current Version | Previous Version | Graphics & Text | Print | Product List | Glossary On
Versions: 1 2 3 4 5 6 7 8 9 10 11 12 13 14 15 16 17 18 19 20 21 22 23 24 25 26 27 28 29 30 31 32 33 34 35 36 37 38 39 40 41 42 43 44 45 46 47 48 49 50
674
ASUS45 KCYS 271110
RWRWY

WYOMING REGIONAL WEATHER ROUNDUP
NATIONAL WEATHER SERVICE CHEYENNE WY
500 AM MDT MON MAR 27 2017

NOTE:  "FAIR" INDICATES FEW OR NO CLOUDS BELOW 12,000 FEET
WITH NO SIGNIFICANT WEATHER AND/OR OBSTRUCTIONS TO VISIBILITY.

WYZ001-271200-
YELLOWSTONE NATIONAL PARK

CITY           SKY/WX    TMP DP  RH WIND       PRES   REMARKS
LK YELLOWSTONE   N/A     28  27  96 N3        29.89S
W YELLOWSTONE  NOT AVBL

$$
WYZ002>013-054>058-071-098>099-271200-
NORTHERN WYOMING

CITY           SKY/WX    TMP DP  RH WIND       PRES   REMARKS
JACKSON        CLOUDY    32  32 100 SW10      29.90S WCI  24
CODY           MOCLDY    39  23  52 SW8       29.83S WCI  33
GREYBULL       FAIR      43  32  65 CALM      29.81S
WORLAND        CLOUDY    40  36  86 SW7       29.82R
SHERIDAN       MOCLDY    41  35  79 N5        29.81F
BUFFALO        CLOUDY    39  32  76 NW9       29.81S WCI  33
GILLETTE       FAIR      35  33  92 S3        29.82F
HULETT         FAIR      34  30  86 CALM      29.87S
NEWCASTLE      FOG       30  30 100 CALM      29.88F VSB 1

$$
WYZ014>020-022>026-101>103-271200-
CENTRAL WYOMING

CITY           SKY/WX    TMP DP  RH WIND       PRES   REMARKS
BIG PINEY      FAIR      27  25  92 E8        29.93F WCI  19
PINEDALE       CLOUDY    27  27 100 CALM      29.95S
DUBOIS         FAIR      32  21  64 N10       29.87S WCI  24
LANDER         FAIR      36  21  54 SE5       29.85F WCI  32
RIVERTON       FAIR      33  24  69 W9        29.86S WCI  25
CASPER         MOCLDY    36  29  75 SW13      29.84S WCI  27
DOUGLAS        FAIR      32  30  92 SE6       29.86F WCI  26

$$
WYZ021-027>030-104>119-271200-
SOUTHERN WYOMING

CITY           SKY/WX    TMP DP  RH WIND       PRES   REMARKS
EVANSTON       FLURRIES  35  24  64 W6        29.92S WCI  30
KEMMERER         N/A     30  27  86 CALM      29.94S
ROCK SPRINGS   CLOUDY    37  26  64 CALM      29.94F
DIXON            N/A     36  27  71 CALM      29.98S
RAWLINS        CLOUDY    35  22  58 W6        29.94S WCI  30
SARATOGA       CLOUDY    30  27  86 W6        29.96R WCI  24
LARAMIE        CLOUDY    29  25  85 W5        29.92S WCI  24
CHEYENNE       FAIR      31  28  89 W8        29.92S WCI  23
TORRINGTON     FAIR      28  27  96 NE6       29.89S WCI  22
PINE BLUFFS    FAIR      21  21 100 S5        29.93S WCI  15

$$




USA.gov is the U.S. government's official web portal to all federal, state and local government web resources and services.